Location: Unspecified
(44.8451°N, 0.0000°E)
Time: 05:33:38
(UTC+00:00)

S-56A Canister/Altair - Visible Passes

Search period start: 04 April 2026 00:00
Search period end: 14 April 2026 00:00
Orbit: 632 x 2485 km, 38.9° (Epoch: 28 March)

Date Brightness Start Highest point End Pass type
(mag) Time Alt. Az. Time Alt. Az. Time Alt. Az.
6 Apr 11.8 04:55:32 10° SSE 05:00:46 13° SE 05:06:13 10° ESE visible
10 Apr 11.2 04:33:46 10° S 04:42:31 22° SE 04:52:26 10° E visible
11 Apr 11.2 03:59:57 10° SSE 04:07:19 18° SE 04:15:40 10° E visible
12 Apr 11.3 03:26:40 10° SSE 03:32:14 14° SE 03:38:23 10° E visible
13 Apr 11.3 02:55:03 10° SE 02:57:13 11° ESE 02:59:29 10° ESE visible
